Location: Newark
(45.5000°N, 11.4167°E)
Time: 08:06:20
(UTC+00:00)

Explorer 11/Cluster Stage 4 - All Passes

Search period start: 19 August 2019 00:00
Search period end: 29 August 2019 00:00
Orbit: 467 x 1260 km, 28.8° (Epoch: 18 August)

Date Brightness Start Highest point End Pass type
(mag) Time Alt. Az. Time Alt. Az. Time Alt. Az.
19 Aug - 10:26:31 10° S 10:28:56 12° SSE 10:31:18 10° SE daylight
19 Aug - 12:11:51 10° SSW 12:16:52 19° S 12:21:29 10° SE daylight
19 Aug - 14:00:12 10° SW 14:04:46 18° S 14:08:51 10° SSE daylight
20 Aug - 10:14:29 10° S 10:18:00 13° SSE 10:21:24 10° SE daylight
20 Aug - 12:00:35 10° SW 12:05:59 20° S 12:10:57 10° SE daylight
20 Aug - 13:49:09 10° SW 13:53:55 18° S 13:58:11 10° SSE daylight
21 Aug - 10:02:50 10° SSW 10:07:02 15° SSE 10:11:09 10° SE daylight
21 Aug - 11:49:24 10° SW 11:55:04 21° S 12:00:20 10° SE daylight
21 Aug - 13:38:08 10° SW 13:43:01 18° SSW 13:47:27 10° SSE daylight
22 Aug - 09:51:22 10° SSW 09:56:05 16° SSE 10:00:42 10° SE daylight
22 Aug - 11:38:15 10° SW 11:44:09 22° S 11:49:39 10° SE daylight
22 Aug - 13:27:10 10° SW 13:32:07 18° SSW 13:36:40 10° SSE daylight
23 Aug - 09:40:03 10° SSW 09:45:07 18° SSE 09:50:08 10° SE daylight
23 Aug - 11:27:11 10° SW 11:33:12 23° S 11:38:54 10° SE daylight
23 Aug - 13:16:14 10° SW 13:21:11 18° SSW 13:25:47 10° SSE daylight
24 Aug - 09:28:50 10° SSW 09:34:09 19° SSE 09:39:28 10° SE daylight
24 Aug - 11:16:09 10° SW 11:22:15 23° S 11:28:06 10° SE daylight
24 Aug - 13:05:22 10° SW 13:10:15 17° SSW 13:14:50 10° SSE daylight
25 Aug - 09:17:42 10° SSW 09:23:10 20° SSE 09:28:43 10° SE daylight
25 Aug - 11:05:11 10° SW 11:11:17 23° S 11:17:14 10° SE daylight
25 Aug - 12:54:33 10° SW 12:59:17 17° SSW 13:03:48 10° SSE daylight
26 Aug - 07:22:31 10° SSE 07:24:25 11° SSE 07:26:22 10° SE daylight
26 Aug - 09:06:40 10° SSW 09:12:12 21° SSE 09:17:54 10° SE daylight
26 Aug - 10:54:17 10° SW 11:00:20 23° S 11:06:19 10° SE daylight
26 Aug - 12:43:50 10° SW 12:48:19 16° SSW 12:52:39 10° SSE daylight
27 Aug - 07:10:52 10° S 07:13:27 12° SSE 07:16:08 10° SE daylight
27 Aug - 08:55:42 10° SW 09:01:14 21° S 09:07:01 10° SE daylight
27 Aug - 10:43:25 10° SW 10:49:22 23° S 10:55:19 10° SE daylight
27 Aug - 12:33:13 10° SW 12:37:21 15° SSW 12:41:22 10° S daylight
28 Aug - 06:59:32 10° S 07:02:30 13° SSE 07:05:36 10° SE daylight
28 Aug - 08:44:48 10° SW 08:50:17 22° S 08:56:06 10° SE daylight
28 Aug - 10:32:37 10° SW 10:38:23 22° S 10:44:16 10° SE daylight
28 Aug - 12:22:44 10° SW 12:26:21 14° SSW 12:29:56 10° S daylight
